This is the latest recevied weather packets stored in our database for station/object G4RHR. If no packets are shown the sender has not sent any weather packets the latest 10 day(s).
| Time | Temp. | Humidity | Pressure | Rain* | Wind** | Luminosity | Snow |
|---|---|---|---|---|---|---|---|
| 1777262581 | 6.67° C | 92% | 1023.2 hPa | 0 mm | - | - | - |
| 1777262041 | 6.67° C | 92% | 1023.3 hPa | 0 mm | - | - | - |
| 1777253941 | 6.67° C | 91% | 1024 hPa | 0 mm | - | - | - |
| 1777251244 | 6.67° C | 91% | 1023.9 hPa | 0 mm | - | - | - |
| 1777250163 | 6.67° C | 90% | 1024.1 hPa | 0 mm | - | - | - |
| 1777248539 | 6.67° C | 90% | 1024.1 hPa | 0 mm | - | - | - |
| 1777247460 | 6.67° C | 89% | 1024.2 hPa | 0 mm | - | - | - |
| 1777244220 | 7.22° C | 88% | 1024.2 hPa | 0 mm | - | - | - |
| 1777243681 | 7.22° C | 88% | 1024.2 hPa | 0 mm | - | - | - |
| 1777239363 | 7.78° C | 87% | 1024.2 hPa | 0 mm | - | - | - |
| 1777233961 | 8.89° C | 80% | 1024.2 hPa | 0 mm | - | - | - |
| 1777233421 | 8.89° C | 80% | 1024.2 hPa | 0 mm | - | - | - |
| 1777232341 | 9.44° C | 79% | 1024.1 hPa | 0 mm | - | - | - |
| 1777231801 | 9.44° C | 79% | 1024.1 hPa | 0 mm | - | - | - |
| 1777225320 | 11.67° C | 72% | 1023.9 hPa | 0 mm | - | - | - |
| 1777221001 | 13.89° C | 66% | 1024.2 hPa | 0 mm | - | - | - |
| 1777218432 | 14.44° C | 65% | 1024.2 hPa | 0 mm | - | - | - |
| 1777216681 | 14.44° C | 66% | 1024.3 hPa | 0 mm | - | - | - |
| 1777215599 | 14.44° C | 65% | 1024.3 hPa | 0 mm | - | - | - |
| 1777212492 | 15.56° C | 62% | 1024.7 hPa | 0 mm | - | - | - |
| 1777210201 | 15.56° C | 60% | 1024.8 hPa | 0 mm | - | - | - |
| 1777208581 | 15.56° C | 61% | 1024.9 hPa | 0 mm | - | - | - |
| 1777206961 | 16.11° C | 59% | 1025.1 hPa | 0 mm | - | - | - |
| 1777206421 | 16.11° C | 60% | 1025.1 hPa | 0 mm | - | - | - |
| 1777204260 | 15.56° C | 62% | 1025.2 hPa | 0 mm | - | - | - |
* Rain latest hour (hover to see other rain measurements)
** Current wind speed in m/s (hover to see current wind gust speed)